Monroe, Wisconsin, United States (53566)
Lat: 42.60N, Lon: 89.64W
Wx Zone: WIZ068
Local Info
Past Weather Observations for Today

NOTE: This archive is for the closest National Weather Service station to Monroe. Information may differ from the station used for current weather conditions.

Click here for Long-term Archive

Time Weather Temperature Dewpoint Humidity Pressure Winds Precip Visibility
10:55
Clear
63°F / 17°C 37°F / 3°C 39% 30.01 in
(1016 mb)
WNW 17.3 mph
(WNW 28 kph)
- 10SM
10:35
Clear
63°F / 17°C 37°F / 3°C 39% 30.01 in
(1016 mb)
NW 16.1 mph
(NW 26 kph)
- 10SM
10:15
Clear
63°F / 17°C 41°F / 5°C 45% 30.01 in
(1016 mb)
NW 13.8 mph
(NW 22 kph)
- 10SM
09:55
Clear
61°F / 16°C 43°F / 6°C 52% 30.01 in
(1016 mb)
NW 12.7 mph
(NW 20 kph)
- 10SM
09:35
Clear
61°F / 16°C 45°F / 7°C 55% 29.98 in
(1015 mb)
NW 10.4 mph
(NW 17 kph)
- 7SM
09:15
Clear
59°F / 15°C 48°F / 9°C 68% 29.98 in
(1015 mb)
NW 10.4 mph
(NW 17 kph)
- 10SM
08:55
Clear
59°F / 15°C 50°F / 10°C 72% 29.98 in
(1015 mb)
NW 13.8 mph
(NW 22 kph)
- 10SM
08:35
Clear
57°F / 14°C 50°F / 10°C 77% 29.98 in
(1015 mb)
WNW 11.5 mph
(WNW 19 kph)
- 10SM
08:15
Clear
55°F / 13°C 52°F / 11°C 88% 29.98 in
(1015 mb)
WNW 10.4 mph
(WNW 17 kph)
- 10SM
07:55
Clear
55°F / 13°C 52°F / 11°C 88% 29.98 in
(1015 mb)
WNW 9.2 mph
(WNW 15 kph)
- 10SM
07:35
Clear
55°F / 13°C 52°F / 11°C 88% 29.95 in
(1014 mb)
WNW 10.4 mph
(WNW 17 kph)
- 10SM
07:15
Clear
Fog And Mist
54°F / 12°C 52°F / 11°C 94% 29.95 in
(1014 mb)
W 9.2 mph
(W 15 kph)
- 5SM
06:55
Clear
Fog And Mist
54°F / 12°C 52°F / 11°C 94% 29.95 in
(1014 mb)
W 11.5 mph
(W 19 kph)
- 5SM
06:35
Clear
Fog And Mist
54°F / 12°C 54°F / 12°C 100% 29.95 in
(1014 mb)
W 12.7 mph
(W 20 kph)
- 4SM
06:15
Clear
Fog And Mist
54°F / 12°C 54°F / 12°C 100% 29.95 in
(1014 mb)
WNW 10.4 mph
(WNW 17 kph)
- 5SM
05:55
Clear
Fog And Mist
54°F / 12°C 54°F / 12°C 100% 29.95 in
(1014 mb)
W 10.4 mph
(W 17 kph)
- 4SM
05:35
Clear
Fog And Mist
54°F / 12°C 54°F / 12°C 100% 29.92 in
(1013 mb)
W 9.2 mph
(W 15 kph)
- 4SM
05:15
Clear
Fog And Mist
54°F / 12°C 54°F / 12°C 100% 29.92 in
(1013 mb)
W 11.5 mph
(W 19 kph)
- 3SM
04:55
Clear
Fog And Mist
55°F / 13°C 54°F / 12°C 94% 29.92 in
(1013 mb)
W 12.7 mph
(W 20 kph)
- 4SM
04:35
Partly Cloudy
Fog And Mist
55°F / 13°C 54°F / 12°C 94% 29.92 in
(1013 mb)
W 12.7 mph
(W 20 kph)
- 3SM
04:15
Mostly Cloudy
Fog And Mist
55°F / 13°C 54°F / 12°C 94% 29.92 in
(1013 mb)
SSW 11.5 mph
(SSW 19 kph)
- 2 1/2SM
03:55
Mostly Cloudy
Fog And Mist
55°F / 13°C 54°F / 12°C 94% 29.92 in
(1013 mb)
W 12.7 mph
(W 20 kph)
- 3SM
03:35
Clear
Fog And Mist
55°F / 13°C 54°F / 12°C 94% 29.92 in
(1013 mb)
W 12.7 mph
(W 20 kph)
- 4SM
03:10
Partly Cloudy
Fog And Mist
55°F / 13°C 54°F / 12°C 94% 29.92 in
(1013 mb)
W 13.8 mph
(W 22 kph)
- 5SM
02:55
Mostly Cloudy
Fog And Mist
55°F / 13°C 55°F / 13°C 100% 29.92 in
(1013 mb)
W 12.7 mph
(W 20 kph)
- 5SM
02:35
Mostly Cloudy
Fog And Mist
55°F / 13°C 55°F / 13°C 100% 29.92 in
(1013 mb)
W 15 mph
(W 24 kph)
- 5SM
02:15
Overcast
Fog And Mist
55°F / 13°C 55°F / 13°C 100% 29.92 in
(1013 mb)
W 13.8 mph
(W 22 kph)
- 5SM
01:55
Overcast
Fog And Mist
55°F / 13°C 55°F / 13°C 100% 29.92 in
(1013 mb)
W 13.8 mph
(W 22 kph)
- 4SM
01:35
Overcast
Fog And Mist
55°F / 13°C 55°F / 13°C 100% 29.92 in
(1013 mb)
SSW 11.5 mph
(SSW 19 kph)
- 1 1/2SM
01:15
Overcast
Fog
55°F / 13°C 55°F / 13°C 100% 29.92 in
(1013 mb)
W 12.7 mph
(W 20 kph)
- 1/2SM
00:55
Overcast
Fog
55°F / 13°C 55°F / 13°C 100% 29.92 in
(1013 mb)
W 12.7 mph
(W 20 kph)
- 1/4SM
00:35
Overcast
Fog
55°F / 13°C 55°F / 13°C 100% 29.92 in
(1013 mb)
W 12.7 mph
(W 20 kph)
- 1/2SM
00:15
Overcast
Fog And Mist
55°F / 13°C 55°F / 13°C 100% 29.92 in
(1013 mb)
W 13.8 mph
(W 22 kph)
- 2 1/2SM
Time Weather Temperature Dewpoint Humidity Pressure Winds Precip Visibility


Weather for websites

WeatherForYou.com, LLC is not responsible for any damages or problems caused by this service. Current weather conditions are obtained from the closest station including government and personal stations which may have varying degrees of accuracy. Weather forecasts are derived from the NOAA NDFD. Like all things, this site belongs to Jesus Christ... He just trusts me to maintain it. If you have any questions or comments email webmaster@weatherforyou.com

Copyright © 2014, WeatherForYou.com LLC. All rights reserved.